Time,TemperatureF,DewpointF,PressureIn,WindDirection,WindDirectionDegrees,WindSpeedMPH,WindSpeedGustMPH,Humidity,HourlyPrecipIn,Conditions,Clouds,dailyrainin,SoftwareType,DateUTC
2013-04-24 00:02:00,56.6,27.0,29.87,ENE,57,1.0,2.0,32,0.00,,,0.00,Wunderground v.1.15,2013-04-24 07:02:00,
2013-04-24 00:07:00,56.6,27.0,29.87,ENE,57,1.0,2.0,32,0.00,,,0.00,Wunderground v.1.15,2013-04-24 07:07:00,
2013-04-24 00:13:00,56.7,27.1,29.87,ENE,57,0.0,1.0,32,0.00,,,0.00,Wunderground v.1.15,2013-04-24 07:13:00,
2013-04-24 00:19:00,56.7,27.1,29.87,ENE,57,0.0,1.0,32,0.00,,,0.00,Wunderground v.1.15,2013-04-24 07:19:00,
2013-04-24 00:24:00,56.8,27.2,29.87,ENE,57,0.0,0.0,32,0.00,,,0.00,Wunderground v.1.15,2013-04-24 07:24:00,
2013-04-24 00:30:00,56.6,27.0,29.87,NE,55,0.0,0.0,32,0.00,,,0.00,Wunderground v.1.15,2013-04-24 07:30:00,
2013-04-24 00:35:00,56.5,27.0,29.87,NE,43,1.0,3.0,32,0.00,,,0.00,Wunderground v.1.15,2013-04-24 07:35:00,
2013-04-24 00:41:00,56.9,25.7,29.87,NNE,13,2.0,2.0,30,0.00,,,0.00,Wunderground v.1.15,2013-04-24 07:41:00,
2013-04-24 00:46:00,57.5,25.5,29.87,NNW,348,2.0,3.0,29,0.00,,,0.00,Wunderground v.1.15,2013-04-24 07:46:00,
2013-04-24 00:52:00,57.7,24.8,29.86,NNW,339,3.0,4.0,28,0.00,,,0.00,Wunderground v.1.15,2013-04-24 07:52:00,
2013-04-24 00:57:00,57.5,23.7,29.86,NNW,348,3.0,4.0,27,0.00,,,0.00,Wunderground v.1.15,2013-04-24 07:57:00,
2013-04-24 01:03:00,57.7,23.0,29.86,North,349,4.0,4.0,26,0.00,,,0.00,Wunderground v.1.15,2013-04-24 08:03:00,
2013-04-24 01:09:00,58.0,23.3,29.86,North,351,4.0,4.0,26,0.00,,,0.00,Wunderground v.1.15,2013-04-24 08:09:00,
2013-04-24 01:14:00,58.2,22.5,29.85,NNW,348,4.0,4.0,25,0.00,,,0.00,Wunderground v.1.15,2013-04-24 08:14:00,
2013-04-24 01:20:00,58.3,22.6,29.85,NNW,346,3.0,3.0,25,0.00,,,0.00,Wunderground v.1.15,2013-04-24 08:20:00,
2013-04-24 01:25:00,58.3,22.6,29.85,NNW,343,3.0,4.0,25,0.00,,,0.00,Wunderground v.1.15,2013-04-24 08:25:00,
2013-04-24 01:31:00,58.4,22.7,29.85,NNW,346,3.0,5.0,25,0.00,,,0.00,Wunderground v.1.15,2013-04-24 08:31:00,
2013-04-24 01:36:00,58.5,22.8,29.85,NNW,346,3.0,5.0,25,0.00,,,0.00,Wunderground v.1.15,2013-04-24 08:36:00,
2013-04-24 01:42:00,58.8,23.0,29.85,NNW,346,2.0,5.0,25,0.00,,,0.00,Wunderground v.1.15,2013-04-24 08:42:00,
2013-04-24 01:48:00,58.5,22.8,29.84,NNW,340,2.0,5.0,25,0.00,,,0.00,Wunderground v.1.15,2013-04-24 08:48:00,
2013-04-24 01:53:00,58.3,22.6,29.84,NNW,344,3.0,5.0,25,0.00,,,0.00,Wunderground v.1.15,2013-04-24 08:53:00,
2013-04-24 01:59:00,58.2,22.5,29.84,NNW,346,4.0,5.0,25,0.00,,,0.00,Wunderground v.1.15,2013-04-24 08:59:00,
2013-04-24 02:04:00,58.0,22.3,29.84,North,355,4.0,4.0,25,0.00,,,0.00,Wunderground v.1.15,2013-04-24 09:04:00,
2013-04-24 02:10:00,58.2,22.5,29.84,North,9,4.0,4.0,25,0.00,,,0.00,Wunderground v.1.15,2013-04-24 09:10:00,
2013-04-24 02:16:00,58.6,22.8,29.84,North,350,4.0,5.0,25,0.00,,,0.00,Wunderground v.1.15,2013-04-24 09:16:00,
2013-04-24 02:21:00,58.3,23.5,29.83,North,355,5.0,5.0,26,0.00,,,0.00,Wunderground v.1.15,2013-04-24 09:21:00,
2013-04-24 02:27:00,57.3,23.6,29.83,North,5,5.0,6.0,27,0.00,,,0.00,Wunderground v.1.15,2013-04-24 09:27:00,
2013-04-24 02:33:00,57.2,23.5,29.83,NNE,13,5.0,5.0,27,0.00,,,0.00,Wunderground v.1.15,2013-04-24 09:33:00,
2013-04-24 02:38:00,57.2,22.6,29.83,North,360,5.0,6.0,26,0.00,,,0.00,Wunderground v.1.15,2013-04-24 09:38:00,
2013-04-24 02:43:00,57.2,22.6,29.83,North,350,4.0,6.0,26,0.00,,,0.00,Wunderground v.1.15,2013-04-24 09:43:00,
2013-04-24 02:49:00,56.9,22.3,29.83,North,355,4.0,6.0,26,0.00,,,0.00,Wunderground v.1.15,2013-04-24 09:49:00,
2013-04-24 02:55:00,57.4,21.8,29.83,North,360,5.0,7.0,25,0.00,,,0.00,Wunderground v.1.15,2013-04-24 09:55:00,
2013-04-24 03:01:00,58.1,22.4,29.83,North,5,5.0,5.0,25,0.00,,,0.00,Wunderground v.1.15,2013-04-24 10:01:00,
2013-04-24 03:07:00,58.0,22.3,29.82,North,9,5.0,5.0,25,0.00,,,0.00,Wunderground v.1.15,2013-04-24 10:07:00,
2013-04-24 03:12:00,58.4,22.7,29.82,NNE,33,4.0,5.0,25,0.00,,,0.00,Wunderground v.1.15,2013-04-24 10:12:00,
2013-04-24 03:18:00,59.3,23.4,29.82,NNE,21,4.0,5.0,25,0.00,,,0.00,Wunderground v.1.15,2013-04-24 10:18:00,
2013-04-24 03:23:00,59.6,23.7,29.82,NNE,19,3.0,5.0,25,0.00,,,0.00,Wunderground v.1.15,2013-04-24 10:23:00,
2013-04-24 03:29:00,59.5,23.6,29.82,NNE,12,3.0,5.0,25,0.00,,,0.00,Wunderground v.1.15,2013-04-24 10:29:00,
2013-04-24 03:34:00,60.1,23.1,29.82,North,11,3.0,5.0,24,0.00,,,0.00,Wunderground v.1.15,2013-04-24 10:34:00,
2013-04-24 03:40:00,61.1,23.0,29.82,North,5,4.0,4.0,23,0.00,,,0.00,Wunderground v.1.15,2013-04-24 10:40:00,
2013-04-24 03:45:00,61.4,23.2,29.81,NNE,15,4.0,5.0,23,0.00,,,0.00,Wunderground v.1.15,2013-04-24 10:45:00,
2013-04-24 03:51:00,60.4,23.4,29.81,NNE,22,4.0,5.0,24,0.00,,,0.00,Wunderground v.1.15,2013-04-24 10:51:00,
2013-04-24 03:57:00,58.9,23.1,29.81,NNE,17,3.0,5.0,25,0.00,,,0.00,Wunderground v.1.15,2013-04-24 10:57:00,
2013-04-24 04:03:00,59.1,23.3,29.81,NNE,16,4.0,5.0,25,0.00,,,0.00,Wunderground v.1.15,2013-04-24 11:03:00,
2013-04-24 04:08:00,58.8,23.0,29.81,NNE,14,4.0,5.0,25,0.00,,,0.00,Wunderground v.1.15,2013-04-24 11:08:00,
2013-04-24 04:14:00,58.7,22.9,29.81,NNE,32,4.0,5.0,25,0.00,,,0.00,Wunderground v.1.15,2013-04-24 11:14:00,
2013-04-24 04:19:00,58.6,22.8,29.81,NNE,17,4.0,5.0,25,0.00,,,0.00,Wunderground v.1.15,2013-04-24 11:19:00,
2013-04-24 04:25:00,59.4,22.6,29.81,NNE,20,3.0,5.0,24,0.00,,,0.00,Wunderground v.1.15,2013-04-24 11:25:00,
2013-04-24 04:31:00,59.9,23.0,29.81,NNE,24,3.0,5.0,24,0.00,,,0.00,Wunderground v.1.15,2013-04-24 11:31:00,
2013-04-24 04:36:00,60.5,22.5,29.81,NNE,17,3.0,5.0,23,0.00,,,0.00,Wunderground v.1.15,2013-04-24 11:36:00,
2013-04-24 04:42:00,61.3,23.1,29.81,North,5,3.0,6.0,23,0.00,,,0.00,Wunderground v.1.15,2013-04-24 11:42:00,
2013-04-24 04:48:00,60.9,23.8,29.81,North,11,4.0,6.0,24,0.00,,,0.00,Wunderground v.1.15,2013-04-24 11:48:00,
2013-04-24 04:54:00,59.8,22.9,29.81,NNE,14,4.0,5.0,24,0.00,,,0.00,Wunderground v.1.15,2013-04-24 11:54:00,
2013-04-24 05:00:00,59.9,23.0,29.81,NNE,12,4.0,4.0,24,0.00,,,0.00,Wunderground v.1.15,2013-04-24 12:00:00,
2013-04-24 05:05:00,60.2,24.2,29.80,NNE,15,4.0,5.0,25,0.00,,,0.00,Wunderground v.1.15,2013-04-24 12:05:00,
2013-04-24 05:11:00,59.5,23.6,29.81,North,360,4.0,5.0,25,0.00,,,0.00,Wunderground v.1.15,2013-04-24 12:11:00,
2013-04-24 05:17:00,59.9,23.9,29.81,North,5,4.0,5.0,25,0.00,,,0.00,Wunderground v.1.15,2013-04-24 12:17:00,
2013-04-24 05:22:00,59.4,23.5,29.81,North,351,4.0,5.0,25,0.00,,,0.00,Wunderground v.1.15,2013-04-24 12:22:00,
2013-04-24 05:28:00,58.1,23.3,29.81,North,9,4.0,6.0,26,0.00,,,0.00,Wunderground v.1.15,2013-04-24 12:28:00,
2013-04-24 05:33:00,57.1,23.4,29.81,NNE,15,5.0,6.0,27,0.00,,,0.00,Wunderground v.1.15,2013-04-24 12:33:00,
2013-04-24 05:39:00,56.2,23.5,29.81,North,5,6.0,7.0,28,0.00,,,0.00,Wunderground v.1.15,2013-04-24 12:39:00,
2013-04-24 05:44:00,55.6,23.8,29.81,NNE,17,6.0,7.0,29,0.00,,,0.00,Wunderground v.1.15,2013-04-24 12:44:00,
2013-04-24 05:50:00,55.8,23.1,29.81,North,5,6.0,6.0,28,0.00,,,0.00,Wunderground v.1.15,2013-04-24 12:50:00,
2013-04-24 05:55:00,56.5,23.7,29.81,NE,52,6.0,7.0,28,0.00,,,0.00,Wunderground v.1.15,2013-04-24 12:55:00,
2013-04-24 06:00:00,57.1,25.1,29.81,NE,52,7.0,10.0,29,0.00,,,0.00,Wunderground v.1.15,2013-04-24 13:00:00,
2013-04-24 06:06:00,58.3,25.3,29.81,North,355,7.0,10.0,28,0.00,,,0.00,Wunderground v.1.15,2013-04-24 13:06:00,
2013-04-24 06:11:00,59.1,26.0,29.81,NNE,15,8.0,8.0,28,0.00,,,0.00,Wunderground v.1.15,2013-04-24 13:11:00,
2013-04-24 06:17:00,59.5,25.5,29.81,North,5,8.0,11.0,27,0.00,,,0.00,Wunderground v.1.15,2013-04-24 13:17:00,
2013-04-24 06:22:00,59.4,26.2,29.81,NNE,30,8.0,8.0,28,0.00,,,0.00,Wunderground v.1.15,2013-04-24 13:22:00,
2013-04-24 06:28:00,59.5,27.2,29.81,North,5,8.0,14.0,29,0.00,,,0.00,Wunderground v.1.15,2013-04-24 13:28:00,
2013-04-24 06:34:00,59.6,26.4,29.82,North,5,8.0,9.0,28,0.00,,,0.00,Wunderground v.1.15,2013-04-24 13:34:00,
2013-04-24 06:39:00,59.4,27.1,29.81,North,355,7.0,9.0,29,0.00,,,0.00,Wunderground v.1.15,2013-04-24 13:39:00,
2013-04-24 06:45:00,59.4,27.9,29.82,North,350,6.0,10.0,30,0.00,,,0.00,Wunderground v.1.15,2013-04-24 13:45:00,
2013-04-24 06:50:00,59.3,28.6,29.82,North,9,7.0,7.0,31,0.00,,,0.00,Wunderground v.1.15,2013-04-24 13:50:00,
2013-04-24 06:56:00,59.3,28.6,29.82,North,360,8.0,9.0,31,0.00,,,0.00,Wunderground v.1.15,2013-04-24 13:56:00,
2013-04-24 07:02:00,59.0,29.2,29.82,North,10,8.0,10.0,32,0.00,,,0.00,Wunderground v.1.15,2013-04-24 14:02:00,
2013-04-24 07:07:00,58.9,29.1,29.82,NNE,16,8.0,10.0,32,0.00,,,0.00,Wunderground v.1.15,2013-04-24 14:07:00,
2013-04-24 07:13:00,59.1,29.2,29.82,North,10,8.0,10.0,32,0.00,,,0.00,Wunderground v.1.15,2013-04-24 14:13:00,
2013-04-24 07:18:00,59.4,29.5,29.82,NE,34,8.0,10.0,32,0.00,,,0.00,Wunderground v.1.15,2013-04-24 14:18:00,
2013-04-24 07:24:00,59.6,29.7,29.82,North,360,6.0,8.0,32,0.00,,,0.00,Wunderground v.1.15,2013-04-24 14:24:00,
2013-04-24 07:29:00,59.7,29.0,29.83,ENE,60,7.0,11.0,31,0.00,,,0.00,Wunderground v.1.15,2013-04-24 14:29:00,
2013-04-24 07:35:00,59.8,29.9,29.83,North,355,8.0,12.0,32,0.00,,,0.00,Wunderground v.1.15,2013-04-24 14:35:00,
2013-04-24 07:41:00,60.0,30.0,29.83,NNE,33,6.0,12.0,32,0.00,,,0.00,Wunderground v.1.15,2013-04-24 14:41:00,
2013-04-24 07:46:00,60.4,30.4,29.83,NNE,29,6.0,12.0,32,0.00,,,0.00,Wunderground v.1.15,2013-04-24 14:46:00,
2013-04-24 07:52:00,60.7,30.6,29.83,North,9,5.0,12.0,32,0.00,,,0.00,Wunderground v.1.15,2013-04-24 14:52:00,
2013-04-24 07:57:00,60.9,30.0,29.83,North,5,5.0,12.0,31,0.00,,,0.00,Wunderground v.1.15,2013-04-24 14:57:00,
2013-04-24 08:03:00,61.1,31.0,29.83,NNE,32,6.0,6.0,32,0.00,,,0.00,Wunderground v.1.15,2013-04-24 15:03:00,
2013-04-24 08:10:00,61.2,30.3,29.83,North,5,7.0,8.0,31,0.00,,,0.00,Wunderground v.1.15,2013-04-24 15:10:00,
2013-04-24 08:16:00,61.3,31.2,29.83,North,360,7.0,8.0,32,0.00,,,0.00,Wunderground v.1.15,2013-04-24 15:16:00,
2013-04-24 08:21:00,61.5,32.1,29.83,North,360,8.0,10.0,33,0.00,,,0.00,Wunderground v.1.15,2013-04-24 15:21:00,
2013-04-24 08:27:00,61.6,32.2,29.83,North,5,8.0,10.0,33,0.00,,,0.00,Wunderground v.1.15,2013-04-24 15:27:00,
2013-04-24 08:32:00,61.8,33.8,29.84,NNE,13,8.0,11.0,35,0.00,,,0.00,Wunderground v.1.15,2013-04-24 15:32:00,
2013-04-24 08:38:00,62.3,32.8,29.84,North,5,8.0,11.0,33,0.00,,,0.00,Wunderground v.1.15,2013-04-24 15:38:00,
2013-04-24 08:43:00,62.3,33.6,29.84,North,11,8.0,11.0,34,0.00,,,0.00,Wunderground v.1.15,2013-04-24 15:43:00,
2013-04-24 08:49:00,62.6,33.8,29.84,North,355,8.0,11.0,34,0.00,,,0.00,Wunderground v.1.15,2013-04-24 15:49:00,
2013-04-24 08:55:00,62.1,34.1,29.84,North,5,8.0,11.0,35,0.00,,,0.00,Wunderground v.1.15,2013-04-24 15:55:00,
2013-04-24 09:00:00,61.8,33.8,29.84,NE,40,8.0,8.0,35,0.00,,,0.00,Wunderground v.1.15,2013-04-24 16:00:00,
2013-04-24 09:06:00,61.5,34.3,29.84,NE,55,9.0,12.0,36,0.00,,,0.00,Wunderground v.1.15,2013-04-24 16:06:00,
2013-04-24 09:12:00,61.6,33.7,29.84,NNE,12,8.0,11.0,35,0.00,,,0.00,Wunderground v.1.15,2013-04-24 16:12:00,
2013-04-24 09:17:00,62.0,33.3,29.84,NNE,30,7.0,11.0,34,0.00,,,0.00,Wunderground v.1.15,2013-04-24 16:17:00,
2013-04-24 09:23:00,62.0,32.5,29.84,NNE,14,7.0,9.0,33,0.00,,,0.00,Wunderground v.1.15,2013-04-24 16:23:00,
2013-04-24 09:28:00,61.4,31.3,29.84,NNW,335,9.0,14.0,32,0.00,,,0.00,Wunderground v.1.15,2013-04-24 16:28:00,
2013-04-24 09:34:00,61.3,32.7,29.84,NNE,26,10.0,15.0,34,0.00,,,0.00,Wunderground v.1.15,2013-04-24 16:34:00,
2013-04-24 09:40:00,61.5,32.1,29.84,NNE,26,11.0,15.0,33,0.00,,,0.00,Wunderground v.1.15,2013-04-24 16:40:00,
2013-04-24 09:45:00,61.3,31.9,29.84,North,350,12.0,15.0,33,0.00,,,0.00,Wunderground v.1.15,2013-04-24 16:45:00,
2013-04-24 09:51:00,62.0,32.5,29.84,North,5,12.0,15.0,33,0.00,,,0.00,Wunderground v.1.15,2013-04-24 16:51:00,
2013-04-24 09:56:00,62.1,32.6,29.84,North,355,11.0,15.0,33,0.00,,,0.00,Wunderground v.1.15,2013-04-24 16:56:00,
2013-04-24 10:02:00,63.0,34.2,29.84,North,10,9.0,10.0,34,0.00,,,0.00,Wunderground v.1.15,2013-04-24 17:02:00,
2013-04-24 10:08:00,63.1,32.7,29.84,NNW,348,9.0,12.0,32,0.00,,,0.00,Wunderground v.1.15,2013-04-24 17:08:00,
2013-04-24 10:13:00,63.2,32.8,29.84,North,5,10.0,14.0,32,0.00,,,0.00,Wunderground v.1.15,2013-04-24 17:13:00,
2013-04-24 10:19:00,63.5,33.1,29.84,North,5,10.0,14.0,32,0.00,,,0.00,Wunderground v.1.15,2013-04-24 17:19:00,
2013-04-24 10:24:00,63.6,34.7,29.84,North,5,9.0,12.0,34,0.00,,,0.00,Wunderground v.1.15,2013-04-24 17:24:00,
2013-04-24 10:30:00,64.0,33.5,29.84,North,350,8.0,8.0,32,0.00,,,0.00,Wunderground v.1.15,2013-04-24 17:30:00,
2013-04-24 10:35:00,64.3,34.6,29.84,North,355,8.0,17.0,33,0.00,,,0.00,Wunderground v.1.15,2013-04-24 17:35:00,
2013-04-24 10:41:00,64.2,36.0,29.85,North,355,9.0,17.0,35,0.00,,,0.00,Wunderground v.1.15,2013-04-24 17:41:00,
2013-04-24 10:47:00,64.4,35.4,29.85,NNE,19,8.0,17.0,34,0.00,,,0.00,Wunderground v.1.15,2013-04-24 17:47:00,
2013-04-24 10:52:00,65.7,37.3,29.85,North,5,6.0,17.0,35,0.00,,,0.00,Wunderground v.1.15,2013-04-24 17:52:00,
2013-04-24 10:58:00,65.4,36.3,29.85,NNW,337,6.0,17.0,34,0.00,,,0.00,Wunderground v.1.15,2013-04-24 17:58:00,
2013-04-24 11:03:00,66.4,37.2,29.85,NNW,333,5.0,7.0,34,0.00,,,0.00,Wunderground v.1.15,2013-04-24 18:03:00,
2013-04-24 11:09:00,66.3,37.8,29.85,North,5,5.0,7.0,35,0.00,,,0.00,Wunderground v.1.15,2013-04-24 18:09:00,
2013-04-24 11:15:00,66.7,38.2,29.85,North,355,5.0,6.0,35,0.00,,,0.00,Wunderground v.1.15,2013-04-24 18:15:00,
2013-04-24 11:20:00,66.0,37.5,29.85,NNW,342,6.0,6.0,35,0.00,,,0.00,Wunderground v.1.15,2013-04-24 18:20:00,
2013-04-24 11:26:00,66.4,38.6,29.85,North,355,6.0,6.0,36,0.00,,,0.00,Wunderground v.1.15,2013-04-24 18:26:00,
2013-04-24 11:31:00,66.6,39.5,29.85,NW,309,5.0,14.0,37,0.00,,,0.00,Wunderground v.1.15,2013-04-24 18:31:00,
2013-04-24 11:37:00,66.9,37.6,29.85,NW,321,4.0,14.0,34,0.00,,,0.00,Wunderground v.1.15,2013-04-24 18:37:00,
2013-04-24 11:43:00,67.1,39.2,29.85,NW,314,5.0,14.0,36,0.00,,,0.00,Wunderground v.1.15,2013-04-24 18:43:00,
2013-04-24 11:48:00,67.2,40.0,29.85,NW,317,4.0,14.0,37,0.00,,,0.00,Wunderground v.1.15,2013-04-24 18:48:00,
2013-04-24 11:54:00,67.4,40.9,29.85,WNW,287,4.0,14.0,38,0.00,,,0.00,Wunderground v.1.15,2013-04-24 18:54:00,
2013-04-24 11:59:00,67.0,42.5,29.85,WNW,285,4.0,14.0,41,0.00,,,0.00,Wunderground v.1.15,2013-04-24 18:59:00,
2013-04-24 12:05:00,67.3,42.1,29.85,NW,315,4.0,7.0,40,0.00,,,0.00,Wunderground v.1.15,2013-04-24 19:05:00,
2013-04-24 12:11:00,69.0,44.9,29.85,WNW,300,3.0,4.0,42,0.00,,,0.00,Wunderground v.1.15,2013-04-24 19:11:00,
2013-04-24 12:16:00,69.9,44.5,29.85,West,279,2.0,4.0,40,0.00,,,0.00,Wunderground v.1.15,2013-04-24 19:16:00,
2013-04-24 12:22:00,70.3,46.1,29.85,West,271,3.0,4.0,42,0.00,,,0.00,Wunderground v.1.15,2013-04-24 19:22:00,
2013-04-24 12:27:00,69.9,45.1,29.85,SW,230,2.0,4.0,41,0.00,,,0.00,Wunderground v.1.15,2013-04-24 19:27:00,
2013-04-24 12:33:00,69.4,44.7,29.85,SW,226,2.0,9.0,41,0.00,,,0.00,Wunderground v.1.15,2013-04-24 19:33:00,
2013-04-24 12:39:00,69.5,45.4,29.85,WNW,287,3.0,9.0,42,0.00,,,0.00,Wunderground v.1.15,2013-04-24 19:39:00,
2013-04-24 12:44:00,69.4,45.9,29.85,West,262,3.0,9.0,43,0.00,,,0.00,Wunderground v.1.15,2013-04-24 19:44:00,
2013-04-24 12:50:00,69.0,46.2,29.85,SW,219,3.0,3.0,44,0.00,,,0.00,Wunderground v.1.15,2013-04-24 19:50:00,
2013-04-24 12:55:00,69.5,46.6,29.85,SW,219,3.0,9.0,44,0.00,,,0.00,Wunderground v.1.15,2013-04-24 19:55:00,
2013-04-24 13:00:00,70.7,47.1,29.84,West,275,3.0,3.0,43,0.00,,,0.00,Wunderground v.1.15,2013-04-24 20:00:00,
2013-04-24 13:06:00,70.0,47.7,29.84,West,281,3.0,4.0,45,0.00,,,0.00,Wunderground v.1.15,2013-04-24 20:06:00,
2013-04-24 13:11:00,70.1,47.2,29.84,SSW,196,3.0,5.0,44,0.00,,,0.00,Wunderground v.1.15,2013-04-24 20:11:00,
2013-04-24 13:17:00,70.8,47.8,29.84,SSW,209,3.0,7.0,44,0.00,,,0.00,Wunderground v.1.15,2013-04-24 20:17:00,
2013-04-24 13:22:00,69.9,47.6,29.85,SW,230,4.0,4.0,45,0.00,,,0.00,Wunderground v.1.15,2013-04-24 20:22:00,
2013-04-24 13:28:00,70.0,47.7,29.84,SW,224,4.0,5.0,45,0.00,,,0.00,Wunderground v.1.15,2013-04-24 20:28:00,
2013-04-24 13:33:00,70.3,47.9,29.84,SW,235,3.0,7.0,45,0.00,,,0.00,Wunderground v.1.15,2013-04-24 20:33:00,
2013-04-24 13:39:00,71.2,48.2,29.84,West,269,3.0,7.0,44,0.00,,,0.00,Wunderground v.1.15,2013-04-24 20:39:00,
2013-04-24 13:44:00,71.7,48.6,29.84,WNW,294,2.0,7.0,44,0.00,,,0.00,Wunderground v.1.15,2013-04-24 20:44:00,
2013-04-24 13:50:00,70.3,47.9,29.84,South,183,2.0,7.0,45,0.00,,,0.00,Wunderground v.1.15,2013-04-24 20:50:00,
2013-04-24 13:56:00,70.5,48.7,29.84,West,276,3.0,7.0,46,0.00,,,0.00,Wunderground v.1.15,2013-04-24 20:56:00,
2013-04-24 14:01:00,70.3,48.5,29.84,SSW,205,3.0,5.0,46,0.00,,,0.00,Wunderground v.1.15,2013-04-24 21:01:00,
2013-04-24 14:07:00,71.1,49.3,29.84,SW,221,4.0,5.0,46,0.00,,,0.00,Wunderground v.1.15,2013-04-24 21:07:00,
2013-04-24 14:12:00,71.8,49.3,29.84,WSW,240,4.0,5.0,45,0.00,,,0.00,Wunderground v.1.15,2013-04-24 21:12:00,
2013-04-24 14:18:00,72.7,48.9,29.83,SW,234,4.0,5.0,43,0.00,,,0.00,Wunderground v.1.15,2013-04-24 21:18:00,
2013-04-24 14:24:00,72.3,49.2,29.83,SSW,211,4.0,6.0,44,0.00,,,0.00,Wunderground v.1.15,2013-04-24 21:24:00,
2013-04-24 14:29:00,72.2,49.1,29.84,SW,219,3.0,6.0,44,0.00,,,0.00,Wunderground v.1.15,2013-04-24 21:29:00,
2013-04-24 14:35:00,72.1,48.4,29.83,NW,311,4.0,8.0,43,0.00,,,0.00,Wunderground v.1.15,2013-04-24 21:35:00,
2013-04-24 14:40:00,72.4,49.3,29.83,SW,217,3.0,8.0,44,0.00,,,0.00,Wunderground v.1.15,2013-04-24 21:40:00,
2013-04-24 14:46:00,72.9,49.7,29.83,WSW,248,3.0,8.0,44,0.00,,,0.00,Wunderground v.1.15,2013-04-24 21:46:00,
2013-04-24 14:52:00,73.1,48.0,29.83,NW,314,3.0,8.0,41,0.00,,,0.00,Wunderground v.1.15,2013-04-24 21:52:00,
2013-04-24 14:57:00,71.9,48.8,29.83,NW,315,3.0,8.0,44,0.00,,,0.00,Wunderground v.1.15,2013-04-24 21:57:00,
2013-04-24 15:03:00,71.8,48.7,29.83,SSE,161,3.0,6.0,44,0.00,,,0.00,Wunderground v.1.15,2013-04-24 22:03:00,
2013-04-24 15:09:00,73.5,49.0,29.83,SSW,194,4.0,6.0,42,0.00,,,0.00,Wunderground v.1.15,2013-04-24 22:09:00,
2013-04-24 15:14:00,72.8,48.4,29.83,SSW,202,4.0,7.0,42,0.00,,,0.00,Wunderground v.1.15,2013-04-24 22:14:00,
2013-04-24 15:20:00,72.9,48.5,29.83,SSW,213,3.0,3.0,42,0.00,,,0.00,Wunderground v.1.15,2013-04-24 22:20:00,
2013-04-24 15:26:00,73.1,48.6,29.82,West,280,3.0,3.0,42,0.00,,,0.00,Wunderground v.1.15,2013-04-24 22:26:00,
2013-04-24 15:31:00,72.1,47.7,29.82,SSE,156,3.0,7.0,42,0.00,,,0.00,Wunderground v.1.15,2013-04-24 22:31:00,
2013-04-24 15:37:00,71.5,49.0,29.82,South,174,3.0,7.0,45,0.00,,,0.00,Wunderground v.1.15,2013-04-24 22:37:00,
2013-04-24 15:42:00,71.7,48.0,29.82,WSW,253,3.0,7.0,43,0.00,,,0.00,Wunderground v.1.15,2013-04-24 22:42:00,
2013-04-24 15:48:00,70.6,48.2,29.82,West,264,3.0,7.0,45,0.00,,,0.00,Wunderground v.1.15,2013-04-24 22:48:00,
2013-04-24 15:54:00,70.9,48.5,29.82,SSW,207,2.0,7.0,45,0.00,,,0.00,Wunderground v.1.15,2013-04-24 22:54:00,
2013-04-24 15:59:00,71.6,49.1,29.82,West,276,2.0,7.0,45,0.00,,,0.00,Wunderground v.1.15,2013-04-24 22:59:00,
2013-04-24 16:05:00,70.6,48.8,29.81,WNW,284,3.0,5.0,46,0.00,,,0.00,Wunderground v.1.15,2013-04-24 23:05:00,
2013-04-24 16:10:00,70.5,49.3,29.81,NW,309,3.0,3.0,47,0.00,,,0.00,Wunderground v.1.15,2013-04-24 23:10:00,
2013-04-24 16:16:00,70.7,48.3,29.81,West,260,2.0,3.0,45,0.00,,,0.00,Wunderground v.1.15,2013-04-24 23:16:00,
2013-04-24 16:22:00,70.5,48.7,29.81,SSW,207,2.0,5.0,46,0.00,,,0.00,Wunderground v.1.15,2013-04-24 23:22:00,
2013-04-24 16:27:00,70.3,48.5,29.81,West,275,3.0,5.0,46,0.00,,,0.00,Wunderground v.1.15,2013-04-24 23:27:00,
2013-04-24 16:33:00,70.6,49.4,29.81,WNW,285,2.0,7.0,47,0.00,,,0.00,Wunderground v.1.15,2013-04-24 23:33:00,
2013-04-24 16:38:00,70.3,48.5,29.81,West,272,2.0,7.0,46,0.00,,,0.00,Wunderground v.1.15,2013-04-24 23:38:00,
2013-04-24 16:44:00,70.1,48.9,29.81,SW,225,2.0,7.0,47,0.00,,,0.00,Wunderground v.1.15,2013-04-24 23:44:00,
2013-04-24 16:49:00,70.3,47.9,29.81,South,182,3.0,7.0,45,0.00,,,0.00,Wunderground v.1.15,2013-04-24 23:49:00,
2013-04-24 16:55:00,69.8,48.7,29.81,SSW,193,3.0,7.0,47,0.00,,,0.00,Wunderground v.1.15,2013-04-24 23:55:00,
2013-04-24 17:00:00,69.9,47.6,29.82,South,175,3.0,4.0,45,0.00,,,0.00,Wunderground v.1.15,2013-04-25 00:00:00,
2013-04-24 17:06:00,68.9,46.7,29.82,South,186,4.0,7.0,45,0.00,,,0.00,Wunderground v.1.15,2013-04-25 00:06:00,
2013-04-24 17:12:00,67.6,46.1,29.82,South,190,4.0,6.0,46,0.00,,,0.00,Wunderground v.1.15,2013-04-25 00:12:00,
2013-04-24 17:17:00,67.2,46.3,29.82,South,182,4.0,6.0,47,0.00,,,0.00,Wunderground v.1.15,2013-04-25 00:17:00,
2013-04-24 17:23:00,66.8,45.9,29.82,South,175,5.0,6.0,47,0.00,,,0.00,Wunderground v.1.15,2013-04-25 00:23:00,
2013-04-24 17:28:00,66.4,45.5,29.82,South,173,5.0,6.0,47,0.00,,,0.00,Wunderground v.1.15,2013-04-25 00:28:00,
2013-04-24 17:34:00,65.7,45.5,29.82,South,185,5.0,7.0,48,0.00,,,0.00,Wunderground v.1.15,2013-04-25 00:34:00,
2013-04-24 17:40:00,65.2,46.1,29.82,South,184,5.0,5.0,50,0.00,,,0.00,Wunderground v.1.15,2013-04-25 00:40:00,
2013-04-24 17:45:00,64.8,46.2,29.82,South,190,4.0,7.0,51,0.00,,,0.00,Wunderground v.1.15,2013-04-25 00:45:00,
2013-04-24 17:51:00,63.8,45.8,29.82,South,184,5.0,7.0,52,0.00,,,0.00,Wunderground v.1.15,2013-04-25 00:51:00,
2013-04-24 17:56:00,63.4,45.5,29.83,South,189,5.0,7.0,52,0.00,,,0.00,Wunderground v.1.15,2013-04-25 00:56:00,
2013-04-24 18:02:00,62.6,45.2,29.83,South,171,5.0,7.0,53,0.00,,,0.00,Wunderground v.1.15,2013-04-25 01:02:00,
2013-04-24 18:08:00,61.8,45.5,29.83,South,188,5.0,7.0,55,0.00,,,0.00,Wunderground v.1.15,2013-04-25 01:08:00,
2013-04-24 18:13:00,61.3,45.9,29.83,SSE,165,5.0,7.0,57,0.00,,,0.00,Wunderground v.1.15,2013-04-25 01:13:00,
2013-04-24 18:19:00,60.7,46.7,29.83,South,169,5.0,7.0,60,0.00,,,0.00,Wunderground v.1.15,2013-04-25 01:19:00,
2013-04-24 18:24:00,60.3,46.8,29.83,South,186,5.0,7.0,61,0.00,,,0.00,Wunderground v.1.15,2013-04-25 01:24:00,
2013-04-24 18:30:00,59.5,46.9,29.83,South,190,5.0,5.0,63,0.00,,,0.00,Wunderground v.1.15,2013-04-25 01:30:00,
2013-04-24 18:36:00,59.0,47.2,29.83,SSW,202,4.0,8.0,65,0.00,,,0.00,Wunderground v.1.15,2013-04-25 01:36:00,
2013-04-24 18:41:00,58.6,47.3,29.83,South,180,4.0,8.0,66,0.00,,,0.00,Wunderground v.1.15,2013-04-25 01:41:00,
2013-04-24 18:47:00,58.1,47.6,29.83,SSW,192,5.0,8.0,68,0.00,,,0.00,Wunderground v.1.15,2013-04-25 01:47:00,
2013-04-24 18:52:00,57.5,47.4,29.83,South,190,5.0,8.0,69,0.00,,,0.00,Wunderground v.1.15,2013-04-25 01:52:00,
2013-04-24 18:58:00,57.1,47.8,29.83,South,182,4.0,8.0,71,0.00,,,0.00,Wunderground v.1.15,2013-04-25 01:58:00,
2013-04-24 19:03:00,56.8,47.9,29.83,South,185,3.0,7.0,72,0.00,,,0.00,Wunderground v.1.15,2013-04-25 02:03:00,
2013-04-24 19:09:00,56.3,47.8,29.83,South,172,4.0,7.0,73,0.00,,,0.00,Wunderground v.1.15,2013-04-25 02:09:00,
2013-04-24 19:15:00,55.9,47.4,29.83,South,190,4.0,6.0,73,0.00,,,0.00,Wunderground v.1.15,2013-04-25 02:15:00,
2013-04-24 19:20:00,55.5,47.3,29.84,South,186,4.0,4.0,74,0.00,,,0.00,Wunderground v.1.15,2013-04-25 02:20:00,
2013-04-24 19:26:00,55.0,47.2,29.84,SSW,198,3.0,6.0,75,0.00,,,0.00,Wunderground v.1.15,2013-04-25 02:26:00,
2013-04-24 19:31:00,54.6,47.2,29.83,South,169,3.0,4.0,76,0.00,,,0.00,Wunderground v.1.15,2013-04-25 02:31:00,
2013-04-24 19:37:00,54.2,47.1,29.84,SSW,194,3.0,9.0,77,0.00,,,0.00,Wunderground v.1.15,2013-04-25 02:37:00,
2013-04-24 19:43:00,53.8,47.1,29.84,SSW,195,3.0,9.0,78,0.00,,,0.00,Wunderground v.1.15,2013-04-25 02:43:00,
2013-04-24 19:48:00,53.3,47.0,29.84,SSW,196,3.0,9.0,79,0.00,,,0.00,Wunderground v.1.15,2013-04-25 02:48:00,
2013-04-24 19:54:00,53.0,47.0,29.84,South,179,3.0,9.0,80,0.00,,,0.00,Wunderground v.1.15,2013-04-25 02:54:00,
2013-04-24 19:59:00,52.7,47.0,29.84,SSW,195,4.0,9.0,81,0.00,,,0.00,Wunderground v.1.15,2013-04-25 02:59:00,
2013-04-24 20:05:00,52.3,47.0,29.84,SSW,198,4.0,6.0,82,0.00,,,0.00,Wunderground v.1.15,2013-04-25 03:05:00,
2013-04-24 20:10:00,52.1,46.8,29.85,SSW,193,4.0,4.0,82,0.00,,,0.00,Wunderground v.1.15,2013-04-25 03:10:00,
2013-04-24 20:16:00,51.8,46.8,29.85,South,175,4.0,5.0,83,0.00,,,0.00,Wunderground v.1.15,2013-04-25 03:16:00,
2013-04-24 20:21:00,51.6,46.9,29.85,SSW,202,4.0,5.0,84,0.00,,,0.00,Wunderground v.1.15,2013-04-25 03:21:00,
2013-04-24 20:27:00,51.3,46.6,29.86,SSW,194,3.0,7.0,84,0.00,,,0.00,Wunderground v.1.15,2013-04-25 03:27:00,
2013-04-24 20:33:00,51.1,46.7,29.86,South,171,4.0,7.0,85,0.00,,,0.00,Wunderground v.1.15,2013-04-25 03:33:00,
2013-04-24 20:38:00,51.0,46.6,29.86,South,179,4.0,7.0,85,0.00,,,0.00,Wunderground v.1.15,2013-04-25 03:38:00,
2013-04-24 20:44:00,50.8,46.8,29.86,SSE,164,4.0,7.0,86,0.00,,,0.00,Wunderground v.1.15,2013-04-25 03:44:00,
2013-04-24 20:50:00,50.7,46.7,29.86,South,175,6.0,6.0,86,0.00,,,0.00,Wunderground v.1.15,2013-04-25 03:50:00,
2013-04-24 20:55:00,50.6,46.9,29.87,SSE,168,6.0,7.0,87,0.00,,,0.00,Wunderground v.1.15,2013-04-25 03:55:00,
2013-04-24 21:00:00,50.5,46.8,29.87,South,190,5.0,5.0,87,0.00,,,0.00,Wunderground v.1.15,2013-04-25 04:00:00,
2013-04-24 21:01:00,50.4,46.7,29.87,South,184,5.0,5.0,87,0.00,,,0.00,Wunderground v.1.15,2013-04-25 04:01:00,
2013-04-24 21:02:00,50.4,46.7,29.87,South,178,4.0,5.0,87,0.00,,,0.00,Wunderground v.1.15,2013-04-25 04:02:00,
2013-04-24 21:04:00,50.3,46.9,29.87,South,178,4.0,6.0,88,0.00,,,0.00,Wunderground v.1.15,2013-04-25 04:04:00,
2013-04-24 21:05:00,50.3,46.9,29.87,South,174,4.0,6.0,88,0.00,,,0.00,Wunderground v.1.15,2013-04-25 04:05:00,
2013-04-24 21:07:00,50.3,46.9,29.87,South,178,5.0,7.0,88,0.00,,,0.00,Wunderground v.1.15,2013-04-25 04:07:00,
2013-04-24 21:13:00,50.1,46.7,29.88,SSW,200,5.0,5.0,88,0.00,,,0.00,Wunderground v.1.15,2013-04-25 04:13:00,
2013-04-24 21:18:00,49.9,46.5,29.88,SSW,196,4.0,6.0,88,0.00,,,0.00,Wunderground v.1.15,2013-04-25 04:18:00,
2013-04-24 21:24:00,49.3,45.9,29.88,WSW,238,3.0,4.0,88,0.00,,,0.00,Wunderground v.1.15,2013-04-25 04:24:00,
2013-04-24 21:30:00,48.2,45.4,29.88,WSW,246,3.0,3.0,90,0.00,,,0.00,Wunderground v.1.15,2013-04-25 04:30:00,
2013-04-24 21:35:00,47.6,45.1,29.89,SW,235,3.0,10.0,91,0.00,,,0.00,Wunderground v.1.15,2013-04-25 04:35:00,
2013-04-24 21:41:00,47.2,45.3,29.89,WSW,248,3.0,10.0,93,0.00,,,0.00,Wunderground v.1.15,2013-04-25 04:41:00,
2013-04-24 21:46:00,47.1,45.2,29.89,SW,227,3.0,10.0,93,0.00,,,0.00,Wunderground v.1.15,2013-04-25 04:46:00,
2013-04-24 21:52:00,47.0,45.4,29.89,WSW,238,3.0,10.0,94,0.00,,,0.00,Wunderground v.1.15,2013-04-25 04:52:00,
2013-04-24 21:58:00,46.9,45.3,29.89,SW,223,3.0,10.0,94,0.00,,,0.00,Wunderground v.1.15,2013-04-25 04:58:00,
2013-04-24 22:03:00,46.8,45.2,29.89,SW,229,3.0,3.0,94,0.00,,,0.00,Wunderground v.1.15,2013-04-25 05:03:00,
2013-04-24 22:09:00,46.6,45.0,29.89,SSW,196,2.0,4.0,94,0.00,,,0.00,Wunderground v.1.15,2013-04-25 05:09:00,
2013-04-24 22:15:00,46.9,45.5,29.90,South,175,3.0,7.0,95,0.00,,,0.00,Wunderground v.1.15,2013-04-25 05:15:00,
2013-04-24 22:20:00,47.2,45.8,29.90,South,175,5.0,5.0,95,0.00,,,0.00,Wunderground v.1.15,2013-04-25 05:20:00,
2013-04-24 22:26:00,47.5,46.1,29.90,SSE,165,5.0,8.0,95,0.00,,,0.00,Wunderground v.1.15,2013-04-25 05:26:00,
2013-04-24 22:31:00,47.5,46.1,29.90,South,182,5.0,5.0,95,0.00,,,0.00,Wunderground v.1.15,2013-04-25 05:31:00,
2013-04-24 22:37:00,47.3,45.9,29.90,South,183,5.0,5.0,95,0.00,,,0.00,Wunderground v.1.15,2013-04-25 05:37:00,
2013-04-24 22:42:00,47.2,45.8,29.90,South,188,4.0,6.0,95,0.00,,,0.00,Wunderground v.1.15,2013-04-25 05:42:00,
2013-04-24 22:48:00,47.2,45.8,29.90,SSE,167,5.0,8.0,95,0.00,,,0.00,Wunderground v.1.15,2013-04-25 05:48:00,
2013-04-24 22:53:00,47.2,45.8,29.91,South,169,6.0,8.0,95,0.00,,,0.00,Wunderground v.1.15,2013-04-25 05:53:00,
2013-04-24 22:59:00,47.2,45.8,29.91,SSE,149,6.0,9.0,95,0.00,,,0.00,Wunderground v.1.15,2013-04-25 05:59:00,
2013-04-24 23:05:00,47.4,46.0,29.91,SSE,153,7.0,11.0,95,0.00,,,0.00,Wunderground v.1.15,2013-04-25 06:05:00,
2013-04-24 23:10:00,48.1,46.7,29.90,SE,144,10.0,16.0,95,0.00,,,0.00,Wunderground v.1.15,2013-04-25 06:10:00,
2013-04-24 23:16:00,48.8,46.9,29.91,SSE,161,13.0,16.0,93,0.00,,,0.00,Wunderground v.1.15,2013-04-25 06:16:00,
2013-04-24 23:21:00,49.1,46.6,29.91,SSE,150,13.0,13.0,91,0.00,,,0.00,Wunderground v.1.15,2013-04-25 06:21:00,
2013-04-24 23:27:00,49.3,46.5,29.91,SSE,150,13.0,18.0,90,0.00,,,0.00,Wunderground v.1.15,2013-04-25 06:27:00,
2013-04-24 23:33:00,49.5,46.4,29.91,SSE,166,12.0,18.0,89,0.00,,,0.00,Wunderground v.1.15,2013-04-25 06:33:00,
2013-04-24 23:38:00,49.5,46.4,29.91,SSE,162,13.0,19.0,89,0.00,,,0.00,Wunderground v.1.15,2013-04-25 06:38:00,
2013-04-24 23:44:00,49.5,46.4,29.91,SSE,153,13.0,18.0,89,0.00,,,0.00,Wunderground v.1.15,2013-04-25 06:44:00,
2013-04-24 23:50:00,49.4,46.3,29.91,SSE,157,13.0,17.0,89,0.00,,,0.00,Wunderground v.1.15,2013-04-25 06:50:00,
2013-04-24 23:55:00,49.3,46.2,29.92,SSE,167,14.0,18.0,89,0.00,,,0.00,Wunderground v.1.15,2013-04-25 06:55:00,